Regional Weather Roundup
Issued by NWS

Home | Current Version | Previous Version | Text Only | Print | Product List | Glossary Off
Versions: 1 2 3 4 5 6 7 8 9 10 11 12 13 14 15 16 17 18 19 20 21 22 23 24 25 26 27 28 29 30 31 32 33 34 35 36 37 38 39 40 41 42 43 44 45 46 47 48 49 50

000
ASUS44 KMEG 260010
RWRTN
TENNESSEE HOURLY STATE WEATHER ROUNDUP
NATIONAL WEATHER SERVICE MEMPHIS TN
700 PM CDT WED APR 25 2018

TNZ002-004-019-021-049-052-054-088>092-260100-
WEST TENNESSEE

CITY           SKY/WX    TMP DP  RH WIND       PRES   REMARKS
MEMPHIS INTL   CLOUDY    62  47  57 N7        29.97F
NWS MEMPHIS      N/A     62 N/A N/A MISG        N/A
JACKSON        CLOUDY    55  54  96 CALM      29.96F
DYERSBURG      CLOUDY    58  51  78 W3        29.97F
SOMERVILLE     CLOUDY    61  46  59 CALM      29.96R
COVINGTON      CLOUDY    57  52  82 CALM      29.96F
UNION CITY     CLOUDY    61  50  67 SW6       29.95F
BOLIVAR        MOCLDY    59  48  67 NW3       29.96S
PARIS          MOCLDY    63  50  63 W16G22    29.96R
HUNTINGDON     CLOUDY    57  54  88 S8        29.97S
LEXINGTON      MOCLDY    55  54  94 VRB3      29.97F
SAVANNAH       MOCLDY    57  52  82 N8        29.96F
$$

TNZ008-025-027-028-033-062-065-066-260100-
NORTH MIDDLE TENNESSEE

CITY           SKY/WX    TMP DP  RH WIND       PRES   REMARKS
NASHVILLE      CLOUDY    66  49  54 N5        29.94F
PORTLAND       PTCLDY    64  52  63 CALM      29.93F
CLARKSVILLE    FAIR      66  49  54 NW3       29.94S
SMYRNA         FAIR      66  50  56 N3        29.95F
COOKEVILLE     CLEAR     61  50  67 CALM      29.94F
LIVINGSTON     PTCLDY    59  50  72 CALM      29.94F
GALLATIN       PTCLDY    66  52  59 CALM      29.96F
CROSSVILLE     FAIR      57  45  64 CALM      29.97S
$$

TNZ061-075-076-078-094-096-097-260100-
SOUTH MIDDLE TENNESSEE

CITY           SKY/WX    TMP DP  RH WIND       PRES   REMARKS
LEWISBURG      PTCLDY    64  50  59 CALM      29.94R
FAYETTEVILLE   PTCLDY    64  52  63 NE5       29.94R
TULLAHOMA      PTCLDY    63  50  63 N5        29.93S
WINCHESTER     CLEAR     63  48  59 CALM      29.94S
MCMINNVILLE    CLOUDY    63  52  67 NE3       29.94F
COLUMBIA       MOCLDY    66  50  55 CALM      29.94R
SHELBYVILLE    PTCLDY    63  50  63 NE6       29.94S
$$

TNZ017-018-042-046-047-260100-
NORTHEAST TENNESSEE

CITY           SKY/WX    TMP DP  RH WIND       PRES   REMARKS
TRI CITIES     CLOUDY    60  50  69 NW7       29.91R
ELIZABETHTON   CLOUDY    59  52  77 W6        29.91R
$$

TNZ012-013-036-069-073-074-260100-
CENTRAL EAST TENNESSEE

CITY           SKY/WX    TMP DP  RH WIND       PRES   REMARKS
KNOXVILLE      CLOUDY    59  51  75 N6        29.94S
OAK RIDGE      CLOUDY    60  51  72 CALM      29.96S
DOWNTOWN KNOXV CLOUDY    59  52  77 CALM      29.95S
GATLINBURG     CLOUDY    59  52  77 NW5       29.95R
MORRISTOWN     CLOUDY    57  54  88 W5        29.94S
JACKSBORO      CLOUDY    57  50  77 CALM      29.98F
$$

TNZ083-085-099-260100-
SOUTHEAST TENNESSEE

CITY           SKY/WX    TMP DP  RH WIND       PRES   REMARKS
CHATTANOOGA    FAIR      63  49  60 NE5       29.94S
DAYTON         MOCLDY    61  54  77 CALM      29.94S
$$

SKY/WX REPORTED AS FAIR MEANS FEW OR NO CLOUDS BELOW
12 THOUSAND FEET.




USA.gov is the U.S. government's official web portal to all federal, state and local government web resources and services.